RH
44 39 39 39 43 48 44 37 40 32 25 25 24 26 36 52 39 34 55 37 36 49 87 75 82 68 73 74 65 68 80 81 48 42 36 32 54 63 57 63 46 22 13 15 26 60 68 69 67
46 45 45 41 49 47 42 43 38 34 30 52 43 58 57 61 68 64 53 44 37 56 75 68 74 80 72 65 76 82 96 96 54 39 34 41 59 66 67 68 48 19 13 17 19 49 66 66 62
50 50 43 52 59 48 37 42 43 41 34 34 52 63 68 74 67 64 59 43 44 54 70 95 81 80 65 73 78 93 83 80 52 44 42 52 64 80 80 76 46 21 16 21 26 35 55 51 45
51 54 50 52 61 51 40 45 45 43 26 26 44 67 76 78 68 63 55 41 59 51 74 94 77 82 66 73 70 59 53 48 46 47 43 54 68 82 84 73 45 24 23 21 24 30 34 34 32
62 54 63 69 59 54 47 47 50 39 35 29 57 68 85 81 73 70 54 48 50 58 77 73 94 84 66 67 64 54 39 24 30 58 48 51 69 92 81 74 47 28 26 29 27 28 29 33 39
71 66 69 68 63 54 51 50 44 47 37 53 62 80 84 78 74 72 70 65 52 57 74 80 96 79 72 70 64 46 31 23 23 65 71 59 82 96 76 67 48 36 27 33 35 32 34 40 46
71 84 73 67 56 55 49 50 51 52 44 31 74 73 86 78 81 74 74 71 70 61 78 80 83 76 81 78 69 52 27 21 18 27 77 98 98 98 65 56 46 40 27 31 34 35 36 41 44
70 71 82 67 57 50 60 53 55 48 43 49 72 67 82 85 84 83 85 84 79 77 89 90 86 78 78 76 75 65 34 20 17 19 20 31 48 35 50 49 50 48 37 28 34 36 37 37 36
78 92 83 72 59 58 65 57 56 45 51 63 77 98 86 93 90 90 92 90 88 84 87 92 89 95 84 78 76 73 50 31 19 18 20 30 35 40 46 40 45 47 40 31 29 37 38 37 38
86 83 72 55 54 68 71 66 61 50 50 53 45 90 99 99 85 91 93 93 93 88 89 93 92 90 87 72 68 65 60 53 44 40 36 21 20 22 24 30 37 40 40 35 30 30 37 40 40
82 80 61 52 64 61 69 71 64 55 53 62 57 49 99 100 99 72 80 82 81 81 83 85 95 91 88 73 66 60 60 59 59 55 48 40 28 20 20 21 23 28 35 38 34 30 31 38 42
81 73 58 64 64 56 65 66 63 58 53 55 49 49 84 99 99 75 68 75 80 84 87 88 86 82 91 86 78 75 65 60 56 57 49 43 38 35 23 23 23 25 31 32 29 29 29 33 41
84 74 62 68 73 64 66 75 60 63 54 50 46 46 66 94 71 68 68 68 76 81 86 84 79 79 85 87 84 77 64 62 66 59 53 45 41 41 45 28 33 35 43 55 55 50 43 39 41
78 72 74 73 80 74 68 73 55 57 53 47 45 46 61 86 71 66 63 66 72 81 84 79 75 70 73 77 74 69 69 74 74 62 57 62 59 51 56 47 49 53 59 66 69 68 67 67 67
71 76 85 81 80 78 76 70 70 59 53 50 46 45 46 60 78 68 59 62 61 67 82 80 76 78 78 78 77 75 75 79 78 73 66 68 72 76 76 77 78 78 78 75 74 75 75 74 78
83 84 88 84 82 97 90 79 55 55 53 54 48 45 44 42 50 71 69 69 64 69 79 83 80 78 78 79 80 80 81 81 81 80 80 74 72 74 80 82 82 87 88 88 87 87 85 84 84
82 92 89 96 78 89 87 76 57 57 50 59 52 46 46 42 38 39 68 68 68 70 78 87 86 84 85 86 85 85 86 88 87 87 85 84 83 79 79 79 83 88 90 92 93 93 94 93 90
91 91 91 86 90 84 84 72 70 67 53 50 56 50 52 44 40 36 32 61 70 64 63 67 75 76 79 83 84 84 85 85 86 85 85 86 88 89 86 83 84 88 91 93 95 95 95 93 89
73 78 80 77 75 82 81 65 72 68 68 63 53 50 51 46 38 40 34 30 40 58 48 47 52 57 62 66 68 71 69 74 82 86 87 87 88 90 89 87 90 92 92 93 90 88 87 83 82
68 82 74 59 70 66 78 73 59 64 68 55 41 47 49 46 42 41 29 32 28 27 29 28 31 40 47 52 60 64 60 58 71 81 83 80 80 83 84 84 86 87 91 89 88 92 93 92 90
71 77 74 67 68 54 67 71 65 55 60 56 54 46 48 43 43 38 29 32 30 28 27 26 26 29 34 42 50 54 50 51 57 63 68 70 72 78 79 79 84 84 85 77 77 88 97 100 98
74 64 62 69 73 84 61 81 66 55 58 56 51 41 45 42 40 36 31 33 30 29 30 31 31 32 35 36 37 36 35 37 38 39 42 47 52 53 52 50 48 48 50 52 52 61 81 99 96
65 61 61 64 68 65 62 74 63 57 58 55 50 44 39 43 40 36 32 32 30 31 33 33 32 32 32 32 32 32 33 33 33 34 35 36 38 38 38 38 38 39 40 41 41 46 59 80 98
63 64 68 74 68 86 68 69 66 54 48 45 43 45 42 36 34 34 36 34 34 35 37 36 35 35 34 34 33 33 32 34 35 37 40 41 42 42 41 41 41 41 40 40 39 39 43 58 94
60 71 91 88 91 87 68 73 54 44 41 38 35 36 38 37 32 35 35 33 35 38 40 40 39 39 39 39 38 38 39 40 40 41 42 43 46 49 51 51 51 51 50 50 49 47 49 58 71
64 63 83 89 92 82 71 81 54 43 40 40 36 34 31 30 30 32 36 34 39 43 45 45 45 45 45 45 47 48 48 48 49 49 51 52 53 54 55 55 56 57 57 56 55 54 56 78 100
78 79 58 78 76 77 67 60 45 38 34 32 34 35 32 33 33 39 39 42 46 50 51 48 47 49 51 52 52 53 53 54 54 55 56 56 57 56 56 55 54 54 54 55 56 54 54 65 96
71 66 78 86 80 76 64 62 48 36 36 34 33 37 37 37 40 43 50 56 56 54 54 55 56 56 55 55 55 56 56 57 56 56 57 56 56 55 54 53 52 51 51 51 51 55 59 61 86
89 87 86 73 74 74 70 54 46 43 32 39 40 42 43 45 49 56 61 60 58 60 61 61 60 60 60 63 64 64 64 64 63 62 60 58 56 54 54 56 57 60 60 60 62 62 65 69 73
79 83 78 88 85 87 78 67 40 36 39 44 46 45 46 49 59 63 64 64 63 63 64 64 64 64 66 68 70 71 70 70 70 67 64 62 60 60 64 68 71 71 72 73 74 76 76 76 78
Wind_Speed
6 7 6 5 2 2 2 3 2 2 1 3 2 4 4 3 4 2 15 26 26 27 26 24 20 17 15 12 10 9 9 7 9 9 10 12 14 13 13 13 13 11 9 7 7 8 8 7 6
5 8 5 3 4 3 2 1 1 4 5 1 3 7 3 2 3 7 26 21 27 27 25 23 20 17 15 13 12 11 11 10 8 11 12 14 14 13 12 11 12 12 11 9 9 9 8 7 6
3 6 4 3 3 5 3 3 2 9 9 7 2 3 3 3 5 22 19 26 29 25 25 21 20 17 15 14 13 13 8 4 4 11 13 14 14 13 8 9 12 12 13 13 12 11 9 7 7
5 3 4 2 4 3 4 2 2 9 4 6 2 5 4 5 19 13 19 30 29 26 23 20 19 17 15 13 11 7 5 2 2 12 13 14 13 12 7 9 10 11 12 13 12 11 10 9 9
12 4 2 3 4 1 2 1 3 4 6 3 2 4 4 12 11 15 19 24 24 26 22 21 19 16 14 13 9 6 5 6 8 12 14 12 12 11 8 8 8 10 10 11 11 10 10 9 9
6 3 3 6 4 2 2 1 2 4 5 4 1 4 4 9 11 18 20 22 22 24 22 21 18 15 14 12 9 7 6 7 9 8 11 12 11 8 8 7 7 7 7 8 8 8 7 6 6
10 5 9 2 5 1 4 3 3 3 3 4 3 3 2 13 14 20 20 20 21 22 22 21 17 14 13 10 8 7 7 8 8 7 10 10 8 7 8 7 5 5 5 4 5 4 3 2 2
14 9 5 5 8 5 2 4 3 5 2 2 3 2 1 14 20 21 20 20 21 23 21 19 16 15 13 11 8 7 7 7 7 7 5 8 9 6 6 4 4 4 4 4 3 1 1 1 2
17 4 13 7 8 4 1 2 3 3 5 9 11 5 6 17 23 21 20 20 23 23 21 19 17 14 13 11 9 8 7 7 7 6 5 4 4 4 4 5 5 3 2 2 2 2 2 3 3
8 9 15 14 4 4 3 1 3 4 9 4 17 7 6 20 22 22 22 22 23 23 21 18 16 15 14 12 9 8 7 6 5 4 3 5 5 5 5 5 6 5 4 3 4 5 4 5 6
10 12 7 13 12 12 6 2 2 5 4 7 13 17 8 17 19 18 18 18 21 21 20 19 18 17 15 11 9 7 5 6 5 5 5 4 5 6 6 6 6 6 7 6 5 6 6 6 7
9 10 16 9 13 14 5 5 1 2 5 7 13 19 9 18 19 19 17 15 18 18 16 16 16 18 17 13 10 8 6 5 5 5 6 5 6 6 6 6 6 6 6 6 6 6 7 8 9
6 10 22 11 9 8 8 3 3 4 6 7 9 15 1 12 15 16 15 16 15 16 14 13 14 17 16 14 12 10 7 6 6 5 5 6 6 6 7 7 6 6 6 6 6 7 8 8 10
14 5 15 15 13 7 2 3 5 2 1 7 9 16 11 6 14 15 17 18 17 15 13 13 11 13 14 12 10 9 8 7 6 5 4 4 4 6 5 6 7 7 7 7 7 7 8 8 10
8 10 4 11 11 5 1 12 10 9 13 14 17 13 12 7 8 14 17 18 16 15 12 12 11 11 11 10 9 8 8 8 7 5 6 6 6 5 6 7 7 7 8 9 10 10 11 11 12
5 5 8 6 16 3 11 25 9 13 13 16 21 15 12 10 7 8 13 16 17 17 16 14 14 13 12 11 10 10 10 10 9 9 9 9 9 9 10 10 9 9 11 12 13 13 14 15 16
5 6 6 7 17 7 8 9 10 7 17 16 21 22 16 14 7 6 9 11 15 17 17 17 16 15 14 13 13 14 15 15 13 13 13 12 13 13 14 15 14 13 14 16 16 17 18 20 21
10 6 5 9 12 8 11 5 4 4 11 22 23 23 22 20 14 8 8 11 14 14 15 15 15 14 14 14 15 15 17 17 16 16 16 16 16 17 18 18 18 18 19 20 21 23 22 23 24
7 7 8 4 10 8 10 7 6 12 12 17 27 26 27 25 17 13 12 13 15 16 16 15 16 15 15 16 16 17 17 16 17 18 18 19 20 21 21 22 22 21 22 23 24 25 25 25 24
8 7 4 3 12 6 8 10 9 13 13 18 23 32 33 30 25 19 19 18 19 20 20 19 19 19 19 19 19 20 19 19 20 21 22 23 24 25 26 26 26 26 26 26 26 27 28 28 26
2 7 4 6 4 2 6 6 10 7 18 20 22 33 31 29 30 22 19 22 20 21 21 21 21 21 20 19 20 21 21 22 22 23 25 26 27 27 27 28 29 29 29 30 29 28 27 28 25
4 5 6 10 5 4 6 5 11 14 12 15 26 28 39 34 32 22 18 22 22 21 21 21 20 19 19 18 18 19 20 20 21 22 23 24 24 24 24 24 25 26 27 27 27 26 25 25 25
3 6 6 4 4 4 0 2 4 5 16 19 23 28 31 31 30 29 20 22 22 21 20 20 19 18 18 18 18 19 20 21 22 22 24 25 25 25 26 26 28 28 29 28 28 27 26 26 25
7 7 7 4 2 2 5 7 2 4 11 7 21 26 35 34 38 37 29 25 24 23 22 20 18 16 16 16 17 18 18 18 18 17 16 16 17 17 18 18 19 19 19 19 19 19 22 24 22
4 5 2 2 1 4 1 3 9 8 7 7 13 27 32 37 43 40 34 31 29 25 21 18 15 14 14 15 15 15 15 15 15 16 16 17 17 17 18 19 19 20 20 20 20 19 19 19 20
3 4 4 6 5 3 2 4 5 6 9 9 14 15 15 15 27 33 38 35 31 26 21 16 13 12 13 13 12 12 13 13 14 15 15 16 16 17 17 18 18 18 18 18 18 19 18 16 15
3 2 3 5 2 1 2 4 9 6 6 9 14 12 14 17 21 28 34 32 29 24 18 14 13 12 11 11 11 10 10 10 11 12 12 12 12 13 13 13 13 13 13 14 15 15 16 16 16
2 6 2 2 1 3 2 4 4 3 6 6 10 14 14 12 15 23 29 28 23 18 15 14 12 11 11 10 10 9 9 10 10 10 10 11 12 12 13 13 13 14 14 14 13 14 14 15 16
2 2 4 3 2 2 1 4 5 5 4 7 12 11 9 11 16 23 26 24 20 17 15 13 11 10 9 9 9 10 10 11 11 12 12 13 13 13 13 13 14 14 14 13 13 12 12 13 14
2 4 4 3 4 1 1 5 3 4 6 8 10 6 3 11 18 21 21 20 18 17 15 13 12 11 10 11 11 11 12 12 13 13 13 13 13 13 12 11 11 11 12 11 10 10 10 9 9
Wind_Direction
158 152 145 154 117 77 214 239 274 257 235 326 141 156 184 110 169 179 156 161 162 162 161 166 165 163 161 163 163 148 134 122 95 97 101 112 117 111 97 81 70 69 83 98 108 109 106 106 93
161 147 147 134 115 150 224 238 313 283 313 350 110 121 113 122 152 153 153 162 163 164 161 163 163 160 162 163 154 139 136 143 99 96 104 115 119 114 101 83 69 69 76 83 102 115 110 102 87
180 145 151 103 123 177 177 134 289 299 317 225 137 93 116 140 148 148 159 160 163 166 160 160 160 165 165 158 151 148 146 151 100 105 111 117 120 113 112 88 70 73 78 81 96 111 110 101 88
135 95 84 115 176 228 161 160 313 327 55 194 166 96 100 148 142 152 167 161 162 164 163 160 161 169 165 157 155 149 145 79 148 121 118 121 124 119 134 98 80 78 83 85 95 104 108 105 97
201 349 113 127 202 235 218 208 352 343 325 324 159 139 105 143 148 142 157 162 165 164 163 164 169 172 168 166 162 144 97 106 126 138 127 131 132 132 137 115 97 89 94 95 99 106 110 111 104
113 93 245 190 194 193 249 274 87 18 335 343 11 115 136 159 153 153 159 166 168 167 166 165 178 174 174 172 164 136 120 132 137 118 135 137 140 149 159 141 120 102 107 107 106 111 119 117 109
166 137 259 192 185 227 179 131 79 7 327 7 115 139 164 165 157 156 160 166 170 171 169 173 181 180 178 184 173 149 139 145 153 134 137 139 151 173 164 152 126 97 86 79 69 72 74 65 55
180 165 207 240 185 214 152 122 94 53 23 41 4 15 164 177 161 159 162 168 171 172 173 177 182 186 185 186 184 166 153 155 167 169 152 158 162 143 140 163 161 148 132 133 129 93 53 341 339
187 166 208 234 175 158 52 183 88 100 16 61 26 349 274 178 163 161 163 167 170 175 179 182 185 190 191 190 194 179 170 156 162 176 193 206 203 204 191 194 201 201 186 172 190 225 270 298 304
164 201 197 207 166 135 100 114 95 91 72 20 27 35 145 175 170 169 168 170 176 178 182 187 192 197 198 200 193 184 192 184 181 180 196 217 228 234 235 239 242 244 240 237 240 242 257 283 298
194 206 150 203 137 131 137 145 85 115 77 28 7 5 174 176 183 181 177 178 178 183 186 190 197 201 204 202 195 198 211 211 217 228 232 236 241 247 252 255 260 261 251 252 255 259 259 269 282
187 209 187 155 172 167 165 139 25 150 149 16 9 2 203 195 195 189 187 181 183 183 186 195 201 205 209 210 211 217 224 219 223 242 247 251 255 251 256 258 258 260 255 258 267 264 264 271 279
189 169 194 136 118 148 158 138 260 260 288 318 336 2 273 203 201 205 205 200 190 187 192 195 202 203 209 217 222 225 224 218 229 255 260 262 264 253 261 254 257 255 263 275 281 283 278 277 280
184 170 177 186 160 142 130 208 168 184 230 310 325 354 2 233 215 215 214 214 202 195 196 196 193 194 202 211 219 221 219 218 232 248 254 262 266 256 256 252 255 264 270 275 280 285 288 291 294
149 172 158 178 181 188 190 269 233 225 284 300 301 317 343 337 246 225 219 218 215 211 204 205 204 205 207 213 215 217 221 229 239 252 256 260 264 268 263 265 271 278 277 276 279 284 290 293 294
118 113 174 178 160 127 150 246 243 263 274 282 277 285 309 327 293 241 234 221 213 220 221 217 215 218 220 226 231 234 238 244 249 256 262 266 268 269 268 271 276 278 276 277 279 282 285 290 292
196 161 154 163 188 136 168 255 265 229 247 268 265 266 283 302 295 261 227 221 219 216 218 221 222 221 224 228 234 241 243 246 249 254 261 265 269 269 270 271 272 273 273 277 280 282 286 290 292
170 131 121 151 182 176 195 258 33 203 216 254 249 255 272 286 281 283 256 223 216 213 214 217 223 225 226 230 237 244 245 247 251 257 262 263 266 268 268 271 273 273 273 276 282 285 284 285 288
126 117 112 134 170 167 199 194 200 214 223 220 246 255 266 267 268 261 275 250 227 227 227 228 231 232 233 237 243 250 259 263 261 263 266 263 264 266 268 271 273 273 273 275 277 281 282 283 288
123 129 112 78 159 151 174 216 236 198 220 223 213 247 251 256 268 268 279 250 233 231 234 238 238 239 241 244 246 252 259 262 263 263 265 264 264 265 266 270 272 275 276 278 279 278 280 280 284
59 140 146 135 120 54 130 249 230 231 224 225 236 235 237 246 257 277 270 241 235 231 232 234 234 236 239 240 243 249 255 259 261 263 264 266 267 267 268 269 270 272 273 274 274 273 272 274 278
125 172 141 140 120 185 174 253 217 208 215 223 227 231 227 240 250 264 257 233 227 228 229 228 226 227 231 236 242 248 253 256 258 260 262 264 265 265 265 266 267 268 270 272 274 273 271 272 275
137 138 128 118 102 125 155 287 282 182 220 221 224 233 243 245 253 250 267 233 224 220 218 218 220 227 235 242 247 253 257 260 263 264 263 262 262 264 266 267 269 271 271 271 272 271 269 267 269
142 86 54 58 91 254 185 201 253 217 232 229 227 224 236 252 258 257 248 229 221 217 215 217 222 230 239 248 255 259 261 262 261 260 260 261 262 263 265 267 270 272 275 276 277 274 268 263 263
102 79 76 132 219 228 25 203 271 269 250 219 218 225 230 232 246 249 228 219 219 217 216 218 225 239 252 260 262 261 259 258 257 257 258 260 261 264 267 269 272 275 277 278 279 277 274 269 262
125 137 147 181 192 219 61 225 248 238 282 267 256 262 252 235 234 236 219 213 211 209 213 220 232 247 254 255 256 258 258 258 260 262 263 265 268 270 271 273 274 275 276 275 273 271 269 263 257
179 82 144 110 38 55 217 277 282 297 299 301 279 268 259 248 239 220 209 203 200 203 209 220 233 241 249 256 261 263 265 265 267 269 272 274 276 277 279 281 282 283 280 277 273 271 267 260 256
100 150 85 11 129 252 281 268 239 328 313 321 313 296 266 247 217 202 195 190 190 198 210 217 221 230 243 251 258 265 269 271 272 273 274 276 278 281 285 288 289 287 285 282 277 271 266 260 252
118 123 64 108 111 183 295 261 213 206 283 304 299 308 260 221 193 183 182 183 189 198 207 216 229 240 244 250 254 260 266 269 271 272 275 278 280 283 284 285 286 287 287 284 279 269 259 255 255
176 170 144 138 219 90 138 270 238 232 299 305 318 344 267 202 183 181 183 188 194 201 211 220 231 243 248 255 262 267 268 266 265 266 270 275 278 279 278 279 280 286 287 282 273 267 262 258 256